Location: Sluknov
(51.0170°N, 14.4670°E)
Time: 10:34:18
(UTC+01:00)

ISS - Pass Details

Date: 26 February 2026
Orbit: 416 x 426 km, 51.6° (Epoch: 9 March)

Event Time Altitude Azimuth Distance (km) Brightness Sun altitude
Exits shadow 05:07:15 52° 281° (W) 525 -3.7 -17.4°
Maximum altitude 05:07:58 90° 30° (NNE) 422 -3.9 -17.3°
Drops below altitude 10° 05:11:19 10° 101° (ESE) 1,491 0.2 -16.8°
Sets 05:13:25 0° 102° (ESE) 2,353 1.5 -16.5°
